Location: Newark
(35.8833°N, 14.5000°E)
Time: 04:38:27
(UTC+00:00)

Altair - Pass Details

Date: 29 November 2019
Orbit: 1502 x 1682 km, 47.2° (Epoch: 07 December)

Event Time Altitude Azimuth Distance (km) Brightness Sun altitude
Rises 21:19:05 0° 209° (SSW) 4,754 - -65.5°
Reaches altitude 10° 21:22:21 10° 203° (SSW) 3,746 - -66.1°
Maximum altitude 21:31:10 46° 134° (SE) 1,966 - -67.6°
Drops below altitude 10° 21:39:46 10° 65° (ENE) 3,661 - -69.0°
Sets 21:42:54 0° 59° (ENE) 4,638 - -69.5°
